www.pogodaiklimat.ru

Погода и климат >> Архив погоды >> Россия >> Камчатский край >> Остров Беринга


АРХИВ ПОГОДЫ на Острове Беринга

Время (UTC), дата Ветер
(напр.,м/с)
 
Видим.   Явления Облачность Т
(С)
Тd
(С)
f
(%)
Тe
(С)
Тes
(С)
Комфортность P
(гПа)
Po
(гПа)
Тmin
(С)
Tmax
(С)
R
(мм)
R24
(мм)
S
(см)
15 15.09 Ю 7
{10}
20 км 10/10 600 м
[Sc]
+10.4 +8.8 90 +7 +7 1017.1 1014.9
18 15.09 Ю 7
{11}
10 км слаб. ливневой дождь 10/10 600 м
[Cb cap]
+10.5 +9.3 92 +7 +7 1017.5 1015.3
21 15.09 Ю 7
{10}
20 км {ливн. осадки} 10/10 600 м
[Cb cap]
+10.7 +9.3 91 +7 +7 1018.2 1016.0 +10.1 0.0
00 16.09 Ю 7
{10}
10 км слаб. ливневой дождь 10/10 300 м
[Cb cap]
+10.3 +9.5 95 +6 +6 1018.5 1016.3
03 16.09 ЮЗ 5 20 км {ливн. осадки} 10/10 600 м
[Sc]
+10.9 +10.4 97 +8 +8 1017.7 1015.5
06 16.09 ЮЗ 3 20 км {ливн. осадки} 8/5 600 м
[Sc Ci sp]
+11.1 +10.2 94 +9 +9 1018.2 1016.0
09 16.09 ЮЗ 2 20 км 3/3 600 м
[Cu hum]
+10.0 +9.5 97 +8 +8 1019.0 1016.8 +11.8 0.0
12 16.09 штиль 0 20 км 3/3 600 м
[Sc]
+9.4 +9.2 99 +8 +8 1019.3 1017.1
15 16.09 СЗ 2 20 км 3/3 600 м
[Sc]
+9.7 +9.6 99 +8 +8 1019.2 1017.0
18 16.09 С 1 20 км 8/8 600 м
[Sc]
+8.5 +8.4 99 +8 +8 1018.5 1016.3
21 16.09 штиль 0 20 км 3/3 600 м
[Sc]
+9.7 +9.6 99 +9 +11 1018.4 1016.2 +7.4
00 17.09 ЮЗ 2 20 км 3/1 600 м
[Cu hum Ci fib]
+11.4 +9.5 88 +10 +16 1017.9 1015.7
03 17.09 З 3 20 км 1/1 600 м
[Cu med, cong]
+12.2 +9.6 84 +11 +15 1016.2 1014.1
06 17.09 Ю 2 20 км 10/10 300 м
[St]
+9.0 +8.5 97 +7 +7 1015.4 1013.2
09 17.09 Ю 2 20 км 10/10 300 м
[St]
+8.6 +7.8 95 +7 +7 1014.7 1012.5 +12.3
12 17.09 Ю 2 20 км 10/10 300 м
[St]
+8.1 +7.5 96 +6 +6 1013.3 1011.1
15 17.09 Ю 1 20 км 10/10 300 м
[St]
+7.9 +7.1 95 +7 +7 1011.4 1009.2
18 17.09 В 2 20 км 10/10 300 м
[St]
+7.5 +6.8 95 +5 +5 1010.2 1008.0
21 17.09 В 4 20 км 9/9 600 м
[Sc]
+9.7 +6.2 79 +7 +7 1009.1 1007.0 +7.4
00 18.09 В 5
{11}
20 км 8/8 600 м
[Sc]
+10.4 +5.6 72 +8 +8 1008.3 1006.1
03 18.09 СВ 7-11
{11}
20 км 9/9 600 м
[Sc]
+9.5 +5.7 77 +6 +6 1007.4 1005.2
06 18.09 СВ 5
{11}
20 км 6/5 600 м
[Sc Ci fib]
+9.4 +7.1 86 +6 +6 1007.0 1004.8
09 18.09 СВ 3
{11}
20 км 5/5 600 м
[Sc]
+8.5 +6.6 88 +6 +6 1007.2 1005.0 +11.3
12 18.09 СВ 6 20 км 8/8 600 м
[Sc]
+9.5 +6.5 82 +6 +6 1007.8 1005.6
15 18.09 С 6 20 км 9/9 600 м
[Sc]
+9.6 +6.1 79 +6 +6 1008.3 1006.1
18 18.09 С 5 20 км 10/10 600 м
[Sc]
+9.0 +7.3 89 +5 +5 1008.6 1006.4
21 18.09 СВ 4 20 км 8/5 600 м
[Sc Ac As]
+10.4 +7.3 81 +8 +8 1009.5 1007.3 +8.0
00 19.09 СВ 3 20 км 9/9 600 м
[Sc]
+11.4 +7.9 79 +10 +10 1010.4 1008.3
03 19.09 З 3 20 км 9/9 600 м
[Cu Sc]
+11.3 +8.1 81 +9 +10 1010.5 1008.4
06 19.09 СЗ 2 20 км 10/3 600 м
[Sc Ac und]
+10.5 +7.3 81 +9 +9 1011.2 1009.1
09 19.09 ЮЗ 3 20 км 8/8 600 м
[Sc]
+9.9 +7.7 86 +8 +8 1012.1 1009.9 +12.0
12 19.09 ЮЗ 6 20 км 6/6 600 м
[Sc]
+10.4 +8.2 86 +7 +7 1011.9 1009.7
15 19.09 ЮЗ 8-10
{10}
20 км 8/8 600 м
[Sc]
+10.3 +8.0 86 +6 +6 1011.6 1009.4
18 19.09 ЮЗ 8-11
{11}
20 км 10/10 600 м
[Sc]
+10.5 +8.7 89 +7 +7 1010.5 1008.4
21 19.09 ЮЗ 8-10
{11}
20 км 10/10 600 м
[Sc]
+10.9 +8.8 87 +7 +7 1011.5 1009.3 +9.9
00 20.09 ЮЗ 6
{10}
10 км слаб. ливневой дождь 10/10 300 м
[Cb cap]
+10.5 +9.4 93 +7 +7 1011.5 1009.4
03 20.09 ЮЗ 5 20 км {ливн. осадки} 10/10 600 м
[Sc]
+10.5 +9.3 92 +7 +7 1011.2 1009.0
06 20.09 ЮЗ 4 20 км {ливн. осадки} 10/10 600 м
[Sc]
+10.4 +9.2 92 +8 +8 1011.3 1009.2
09 20.09 СВ 2 20 км 10/10 600 м
[Sc]
+9.1 +8.2 94 +7 +7 1011.6 1009.4 +10.9 1
12 20.09 В 2 10 км слаб. ливневой дождь 10/10 300 м
[Cb cap]
+8.3 +7.8 97 +6 +6 1011.1 1009.0
15 20.09 В 2 10 км слаб. ливневой дождь 10/10 300 м
[Cb cap]
+8.5 +8.2 98 +6 +6 1010.0 1007.8
18 20.09 СВ 3 10 км слаб. ливневой дождь 10/10 300 м
[Cb cap]
+8.2 +7.8 97 +5 +5 1009.4 1007.2
21 20.09 СВ 3 10 км слаб. ливневой дождь 10/10 300 м
[Cb cap]
+8.5 +7.9 96 +6 +6 1009.2 1007.0 +8.2 7
00 21.09 СВ 5 10 км слаб. ливневой дождь 10/10 300 м
[Cb cap]
+9.4 +7.3 87 +6 +6 1008.7 1006.5
03 21.09 СВ 5 20 км {ливн. осадки} 8/6 600 м
[Cb cap Ac As]
+10.0 +6.5 79 +7 +8 1007.8 1005.6
06 21.09 СВ 5
{11}
20 км {ливн. осадки} 6/4 600 м
[Cu med, cong Ci fib]
+9.3 +5.3 76 +6 +6 1008.1 1006.0
09 21.09 СВ 3 20 км 4/4 600 м
[Sc diur, vesp]
+7.2 +4.8 85 +4 +4 1009.5 1007.3 +10.5 0.1
12 21.09 С 5 20 км 9/9 600 м
[Sc]
+8.8 +6.8 87 +5 +5 1010.1 1007.9
15 21.09 С 6 20 км 5/5 600 м
[Sc]
+7.4 +5.3 87 +3 +3 1010.8 1008.6
18 21.09 С 3 20 км 3/3 600 м
[Sc]
+6.7 +4.0 83 +4 +4 1011.6 1009.4
21 21.09 С 1 20 км 8/8 600 м
[Sc]
+7.9 +5.0 82 +7 +8 1012.7 1010.5 +5.5
00 22.09 СЗ 8-13
{13}
20 км 8/5 600 м
[Cu Sc Ac lent]
+9.4 +5.3 76 +5 +6 1013.0 1010.9
03 22.09 З 3
{13}
10 км слаб. ливневой дождь 9/9 600 м
[Cb cap]
+8.3 +6.4 88 +6 +6 1013.2 1011.0
06 22.09 Ю 1 20 км {ливн. осадки} 8/6 600 м
[Sc Ac lent]
+8.5 +5.6 82 +8 +8 1012.9 1010.7
09 22.09 штиль 0 4000 м ливневой дождь 10/10 300 м
[Cb cap]
+7.3 +5.6 89 +6 +6 1013.7 1011.5 +10.1 3

 

Местоположение метеостанции Остров Беринга (Камчатский край, Россия): широта 55.20 долгота 165.90 высота над уровнем моря 18 м.

В архиве по умолчанию представлена погода на Острове Беринга за последнюю неделю. Архивные данные за месяц целиком и за предыдущие месяцы, начиная с января 2011 года, Вы можете получить, выбрав интересующий диапазон дат из раскрывающегося списка и нажав кнопку "Ввод!".


*Определитесь, кто Вы:
робот инопланетянин человек

Внимание! Время в таблицах - всемирное. Для получения местного времени необходимо прибавить поправку, которая равна 12 ч.

Смотрите также архив погоды в соседних городах и на ближайших метеорологических станциях:

Погода на Мысе Африка (Камчатский край, Россия) (196 км)
Погода в Усть-Камчатске (Камчатский край, Россия) (230 км)
Погода на Мысе Озерном (Камчатский край, Россия) (319 км)
Погода в Ключах (Камчатский край, Россия) (343 км)
Погода в Козыревске (Камчатский край, Россия) (394 км)
Погода в Семячике (Камчатский край, Россия) (404 км)
Погода в Долиновке (Камчатский край, Россия) (438 км)
Погода в Эссо (Камчатский край, Россия) (460 км)
Погода в Мильково (Камчатский край, Россия) (476 км)
Погода в Оссоре (Камчатский край, Россия) (481 км)

Пояснения к столбцам:

Ветер - указаны скорость ветра в м/с - средняя за 10 мин, порывы в срок и между сроками (в фигурных скобках) и направление, откуда дует ветер: С - северный, СВ - северо-восточный, В - восточный, ЮВ - юго-восточный, Ю - южный, ЮЗ - юго-западный, З - западный, СЗ - северо-западный.
Видимость - горизонтальная дальность видимости в метрах или километрах. При видимости от 1 до 10 км при отсутствии осадков обычно наблюдается дымка, при ухудшении видимости до 1 км и менее - туман. В сухую погоду видимость может ухудшаться дымом, пылью или мглою.
Явления - указаны атмосферные явления, наблюдавшиеся в срок или в последний час перед сроком; фигурными скобками обозначены явления, наблюдавшиеся между сроками (за 1-3 часа до срока); квадратными скобками обозначены град или гололедные отложения с указанием их диаметра в мм.
Облачность - указаны через наклонную черту общая и нижняя облачность в баллах и высота нижней границы облаков в метрах; квадратными скобками обозначены формы облаков: Ci - перистые, Cs - перисто-слоистые, Cc - перисто-кучевые, Ac - высококучевые, As - высокослоистые, Sc - слоисто-кучевые, Ns - слоисто-дождевые, Cu - кучевые, Cb - кучево-дождевые. Подробнее классификацию облаков см. в Атласе облаков (PDF).
T - Температура воздуха - температура, измеренная на высоте 2 м над землей.
Td - Температура точки росы - температура, при понижении до которой содержащийся в воздухе водяной пар достигнет насыщения.
f - Относительная влажность воздуха - влажноcть воздуха, измеренная на высоте 2 м над землей.
Te - Эффективная температура - температура, которую ощущает одетый по сезону человек в тени. Характеристика душности погоды. При расчете учитывается влияние влажности воздуха и скорости ветра на теплоощущения человека.
Tes - Эффективная температура на солнце - температура, которую ощущает человек, с поправкой на солнечный нагрев. Характеристика знойности погоды. Зависит от высоты солнца над горизонтом, облачности и скорости ветра. Ночью, в пасмурную погоду, а также при ветре 12 м/с и более поправка равна нулю.
P - Атмосферное давление - приведенное к уровню моря атмосферное давление.
Po - Атмосферное давление - измеренное на уровне метеостанции атмосферное давление.
Tmin - Минимальная температура - минимум температуры воздуха на высоте 2 м над землей.
Tmax - Максимальная температура - максимум температуры воздуха на высоте 2 м над землей.
R - Количество осадков - Количество выпавших осадков за период времени, мм. При наведении курсора мыши на число - период времени, за который выпало указанное количество осадков.
R24 - Количество осадков - Количество выпавших осадков за 24 часа, мм.
S - Снежный покров - Высота снежного покрова, см. При наведении курсора мыши на число - состояние снежного покрова и степень покрытия местности в баллах.